Weather History for KBRL - March, 2013

Change the Weather History Date:

Wednesday, March 20, 2013

  Actual Average Record
Temperature  
Mean Temperature 23 °F 43 °F  
Max Temperature 29 °F 54 °F 80 °F (2012)
Min Temperature 17 °F 33 °F 4 °F (1906)
Degree Days  
Heating Degree Days 42 22  
Month to date heating degree days 649 518  
Since 1 July heating degree days 5020 4896  
Cooling Degree Days 0 0  
Month to date cooling degree days 0 0  
Year to date cooling degree days 0 0  
Moisture  
Dew Point 9 °F    
Average Humidity 59    
Maximum Humidity 75    
Minimum Humidity 42    
Precipitation  
Precipitation 0.00 in 0.09 in 0.66 in (1962)
Month to date precipitation 1.69 1.75  
Year to date precipitation 5.66 4.61  
Sea Level Pressure  
Sea Level Pressure 30.21 in    
Wind  
Wind Speed 14 mph (NW)    
Max Wind Speed 23 mph    
Max Gust Speed 35 mph    
Visibility 10 miles    
Events      
T = Trace of Precipitation, MM = Missing Value Source: NWS Daily Summary

Daily Weather History Graph

Daily Weather History Graph

Search for Another Location

Airport or City:

Trip Planner

Search our weather history database for the weather conditions in past years. The results will help you decide how hot, cold, wet, or windy it might be!

Date:

Astronomy

Mar. 20, 2013 Rise Set
Actual Time 7:07 AM CDT 7:16 PM CDT
Civil Twilight 6:40 AM CDT 7:44 PM CDT
Nautical Twilight 6:08 AM CDT 8:16 PM CDT
Astronomical Twilight 5:35 AM CDT 8:48 PM CDT
Moon 12:50 PM CDT (3/20) 2:49 AM CDT (3/20)
Length of Visible Light 13h 04m
Length of Day
12h 09m
First Quarter, 59% of the Moon is Illuminated
Mar 20
First Quarter
Mar 27
Full
Apr 2
Last Quarter
Apr 10
New
Apr 18
First Quarter

Hourly Weather History & Observations

Time (CDT) Temp. Windchill Dew Point Humidity Pressure Visibility Wind Dir Wind Speed Gust Speed Precip Events Conditions
12:53 AM 28.0 °F 21.7 °F 19.0 °F 69% 30.19 in 10.0 mi NW 5.8 mph - N/A   Clear
1:53 AM 27.0 °F 17.3 °F 19.0 °F 72% 30.19 in 10.0 mi NNW 10.4 mph - N/A   Clear
2:16 AM 26.6 °F 15.2 °F 19.4 °F 74% 30.18 in 10.0 mi NNW 13.8 mph 20.7 mph N/A   Mostly Cloudy
2:53 AM 24.1 °F 10.6 °F 10.0 °F 55% 30.22 in 10.0 mi NW 17.3 mph 28.8 mph N/A   Overcast
3:53 AM 19.9 °F 6.2 °F 8.1 °F 60% 30.23 in 10.0 mi NNW 15.0 mph 21.9 mph N/A   Clear
4:53 AM 19.0 °F 3.2 °F 7.0 °F 59% 30.23 in 10.0 mi NW 19.6 mph 26.5 mph N/A   Clear
5:53 AM 17.1 °F 1.5 °F 7.0 °F 65% 30.25 in 10.0 mi NW 17.3 mph 26.5 mph N/A   Clear
6:53 AM 17.1 °F 2.0 °F 7.0 °F 65% 30.27 in 10.0 mi NW 16.1 mph 23.0 mph N/A   Partly Cloudy
7:08 AM 17.6 °F 5.7 °F 8.6 °F 68% 30.25 in 10.0 mi NW 10.4 mph 19.6 mph N/A   Mostly Cloudy
7:53 AM 17.1 °F 2.0 °F 7.0 °F 65% 30.28 in 10.0 mi NW 16.1 mph 29.9 mph N/A   Overcast
8:53 AM 18.0 °F 1.7 °F 5.0 °F 57% 30.28 in 10.0 mi NW 19.6 mph 29.9 mph N/A   Scattered Clouds
9:53 AM 19.9 °F 5.7 °F 3.0 °F 48% 30.27 in 10.0 mi NW 16.1 mph 27.6 mph N/A   Clear
10:53 AM 21.0 °F 5.4 °F 3.0 °F 46% 30.28 in 10.0 mi NW 20.7 mph 29.9 mph N/A   Clear
11:53 AM 24.1 °F 10.1 °F 5.0 °F 44% 30.27 in 10.0 mi NW 18.4 mph 28.8 mph N/A   Clear
12:53 PM 26.1 °F 14.0 °F 7.0 °F 44% 30.25 in 10.0 mi NW 15.0 mph 26.5 mph N/A   Clear
1:53 PM 27.0 °F 13.5 °F 6.1 °F 41% 30.22 in 10.0 mi NW 19.6 mph 28.8 mph N/A   Clear
2:53 PM 27.0 °F 13.2 °F 7.0 °F 43% 30.20 in 10.0 mi NW 20.7 mph 28.8 mph N/A   Partly Cloudy
3:53 PM 28.0 °F 17.0 °F 8.1 °F 43% 30.19 in 9.0 mi NW 13.8 mph 23.0 mph N/A   Mostly Cloudy
4:53 PM 28.9 °F 19.2 °F 8.1 °F 41% 30.18 in 10.0 mi NW 11.5 mph 25.3 mph N/A   Mostly Cloudy
5:53 PM 27.0 °F 14.7 °F 8.1 °F 45% 30.17 in 10.0 mi NW 16.1 mph 25.3 mph N/A   Scattered Clouds
6:53 PM 26.1 °F 15.0 °F 7.0 °F 44% 30.17 in 10.0 mi NW 12.7 mph 25.3 mph N/A   Partly Cloudy
7:53 PM 24.1 °F 13.1 °F 9.0 °F 53% 30.17 in 10.0 mi NW 11.5 mph 19.6 mph N/A   Partly Cloudy
8:53 PM 23.0 °F 13.9 °F 10.0 °F 58% 30.16 in 10.0 mi NW 8.1 mph - N/A   Partly Cloudy
9:53 PM 21.9 °F 13.4 °F 10.9 °F 63% 30.15 in 10.0 mi NNW 6.9 mph - N/A   Clear
10:53 PM 21.9 °F 13.4 °F 10.9 °F 63% 30.15 in 10.0 mi NW 6.9 mph - N/A   Clear
11:53 PM 19.9 °F 11.1 °F 10.9 °F 68% 30.14 in 10.0 mi NNW 6.9 mph - N/A   Clear